Powrót do katalogu

STARLINK-34120

AktywnyŁącznośćVLEO
NORAD 63898·PAYLOAD·🇺🇸 United States

Wystrzelony May 10, 2025 z Cape Canaveral Space Force Station

Loading…

Następne Przeloty (najbliższe 24 godziny)

TLE

ŚwieżeSource: CelesTrak SupGP

Epoka: Sep 15, 2026, 03:12 UTC

1 63898C 25095J   26258.13381944  .00045319  00000+0  16424-2 0  2589
2 63898  43.0026 185.8768 0001416 277.7788 173.6362 15.27537451    11

Śledź STARLINK-34120 w czasie rzeczywistym z AllMySat

Download on the App Store